Location: Dal�� Lhota
(48.7500°N, 14.0167°E)
Time: 02:33:21
(UTC+00:00)

Transit 2A - Pass Details

Date: 28 July 2021
Orbit: 594 x 964 km, 66.7° (Epoch: 21 September)

Event Time Altitude Azimuth Distance (km) Brightness Sun altitude
Rises 07:30:36 0° 240° (WSW) 2,849 8.6 37.0°
Reaches altitude 10° 07:32:56 10° 249° (WSW) 1,972 7.8 37.4°
Maximum altitude 07:37:01 36° 317° (NW) 1,027 6.6 38.0°
Drops below altitude 10° 07:41:25 10° 24° (NNE) 2,129 8.5 38.7°
Sets 07:44:02 0° 33° (NNE) 3,110 9.3 39.1°
